Regional Weather Roundup
Issued by NWS

Home | Current Version | Previous Version | Graphics & Text | Print | Product List | Glossary On
Versions: 1 2 3 4 5 6 7 8 9 10 11 12 13 14 15 16 17 18 19 20 21 22 23 24 25 26 27 28 29 30 31 32 33 34 35 36 37 38 39 40 41 42 43 44 45 46 47 48 49 50
000
ASUS43 KLMK 121310
RWRKY
KENTUCKY REGIONAL WEATHER ROUNDUP
NATIONAL WEATHER SERVICE LOUISVILLE KY
800 AM EST TUE DEC 12 2017

NOTE "FAIR" INDICATES FEW OR NO CLOUDS BELOW 12,000 FEET
WITH NO SIGNIFICANT WEATHER AND/OR OBSTRUCTIONS TO VISIBILITY.

KYZ001>023-026-027-061>063-070>075-121400-
WESTERN AND SOUTH CENTRAL KENTUCKY

CITY           SKY/WX    TMP DP  RH WIND       PRES   REMARKS
PADUCAH        PTCLDY    37  24  59 N12       30.12R WCI  29
HENDERSON      MOCLDY    34  22  61 NW14      30.09R WCI  25
OWENSBORO      CLOUDY    36  25  64 N17G24    30.06R WCI  25
HOPKINSVILLE   CLOUDY    39  29  66 NW18G24   30.05R WCI  30
BOWLING GREEN  CLOUDY    37  32  82 NW13G21   30.03R WCI  29
GLASGOW        DRIZZLE   36  32  83 NW9G21    29.99R WCI  29
$$

KYZ024-025-028>034-038-045-046-053-121400-
NORTH CENTRAL KENTUCKY

CITY           SKY/WX    TMP DP  RH WIND       PRES   REMARKS
LOUISVILLE/SDF CLOUDY    36  22  56 NW17G32   29.98R WCI  26
LOUISVILLE/LOU CLOUDY    35  25  66 NW23G33   29.97R WCI  23
FORT KNOX      CLOUDY    34  27  75 NW9       29.96R WCI  26
$$

KYZ035>037-039>044-047>052-055>060-089>105-121400-
NORTHEAST KENTUCKY

CITY           SKY/WX    TMP DP  RH WIND       PRES   REMARKS
LEXINGTON      LGT RAIN  34  30  85 NW16G26   29.90S FOG     WCI  24
COVINGTON      FLURRIES  31  27  85 NW17G29   29.89R WCI  19
FRANKFORT      CLOUDY    34  29  82 NW10G22   29.91R WCI  26
$$

KYZ054-064>069-076>088-106>120-121400-
SOUTHEAST KENTUCKY

CITY           SKY/WX    TMP DP  RH WIND       PRES   REMARKS
JACKSON        CLOUDY    38  28  67 W10G22    29.82R WCI  31
LONDON         CLOUDY    39  30  70 NW10G21   29.87R WCI  32
SOMERSET       CLOUDY    37  32  81 W13       29.92R WCI  29
MIDDLESBORO    CLOUDY    40  34  78 CALM      29.86R
MONTICELLO     CLOUDY    40  32  73 NW17      29.93R WCI  31
$$




USA.gov is the U.S. government's official web portal to all federal, state and local government web resources and services.